CFG188 ZULS-VIDP

Flight info

Callsign CFG188
Flight time 2h 13m
Altitude 34100
Route DEP10R IKUBI B345 NONIM/N0458F341 B345 KTM Y752 PUBOB DCT ANSUN Q526 SUKET L626 HW HW7A
Aircraft A321/M-SDE3FGHIRWY/LB1

Departure

Time 2026-04-26 06:26
Airport Lhasa Gonggar International Airport (ZULS)

Arrival

Time 2026-04-26 08:40
Airport Indira Gandhi International Airport (VIDP)
Time Latitude Longitude Altitude Speed Heading
2026-04-26 05:52 29.29279 90.89061 11468 ft 0 kts 284°
2026-04-26 06:17 29.29275 90.89081 11446 ft 4 kts 283°
2026-04-26 06:17 29.29269 90.89112 11440 ft 4 kts 286°
2026-04-26 06:17 29.29259 90.89139 11442 ft 4 kts 312°
2026-04-26 06:18 29.29247 90.89149 11449 ft 1 kts 20°
2026-04-26 06:18 29.29246 90.89149 11441 ft 0 kts 20°
2026-04-26 06:21 29.29257 90.89153 11446 ft 1 kts 20°
2026-04-26 06:21 29.29280 90.89163 11441 ft 7 kts 20°
2026-04-26 06:22 29.29334 90.89185 11441 ft 8 kts 19°
2026-04-26 06:22 29.29380 90.89196 11442 ft 7 kts
2026-04-26 06:22 29.29422 90.89197 11446 ft 6 kts 360°
2026-04-26 06:22 29.29471 90.89197 11443 ft 6 kts 360°
2026-04-26 06:23 29.29512 90.89196 11444 ft 8 kts 359°
2026-04-26 06:23 29.29576 90.89196 11447 ft 8 kts 360°
2026-04-26 06:23 29.29627 90.89196 11448 ft 7 kts 360°
2026-04-26 06:23 29.29690 90.89195 11445 ft 9 kts
2026-04-26 06:24 29.29747 90.89196 11449 ft 7 kts
2026-04-26 06:24 29.29775 90.89230 11449 ft 5 kts 83°
2026-04-26 06:24 29.29777 90.89256 11445 ft 0 kts 89°
2026-04-26 06:24 29.29777 90.89271 11450 ft 8 kts 88°
2026-04-26 06:25 29.29782 90.89546 11452 ft 62 kts 89°
2026-04-26 06:25 29.29791 90.90239 11449 ft 110 kts 89°
2026-04-26 06:25 29.29809 90.91263 11434 ft 149 kts 89°
2026-04-26 06:25 29.29828 90.92584 11445 ft 181 kts 88°
2026-04-26 06:26 29.29863 90.94123 11519 ft 199 kts 89°
2026-04-26 06:26 29.29915 90.95621 12226 ft 181 kts 88°
2026-04-26 06:26 29.29954 90.97086 12662 ft 191 kts 89°
2026-04-26 06:26 29.29972 90.98649 12862 ft 199 kts 89°
2026-04-26 06:27 29.30096 91.00266 12938 ft 209 kts 81°
2026-04-26 06:27 29.30393 91.01925 13143 ft 214 kts 76°
2026-04-26 06:27 29.30773 91.03598 13267 ft 222 kts 74°
2026-04-26 06:27 29.31214 91.05337 13317 ft 233 kts 73°
2026-04-26 06:28 29.31643 91.07146 13443 ft 238 kts 79°
2026-04-26 06:28 29.31749 91.09049 13575 ft 242 kts 95°
2026-04-26 06:28 29.31408 91.10949 13692 ft 246 kts 105°
2026-04-26 06:28 29.31012 91.12681 13770 ft 251 kts 103°
2026-04-26 06:29 29.30637 91.14646 13856 ft 255 kts 101°
2026-04-26 06:29 29.30354 91.16671 13928 ft 259 kts 97°
2026-04-26 06:29 29.30162 91.18745 14000 ft 264 kts 95°
2026-04-26 06:29 29.30009 91.20842 14056 ft 273 kts 95°
2026-04-26 06:30 29.29847 91.23060 14165 ft 282 kts 95°
2026-04-26 06:30 29.29683 91.25311 14575 ft 284 kts 95°
2026-04-26 06:30 29.29519 91.27580 15019 ft 286 kts 95°
2026-04-26 06:30 29.29353 91.29858 15445 ft 289 kts 95°
2026-04-26 06:31 29.29005 91.32125 15879 ft 290 kts 108°
2026-04-26 06:31 29.28245 91.34271 16327 ft 292 kts 119°
2026-04-26 06:31 29.27120 91.36210 16763 ft 293 kts 131°
2026-04-26 06:31 29.25679 91.37865 17202 ft 295 kts 142°
2026-04-26 06:32 29.23967 91.39164 17637 ft 296 kts 154°
2026-04-26 06:32 29.22066 91.40086 18069 ft 298 kts 160°
2026-04-26 06:32 29.20129 91.40937 18459 ft 299 kts 159°
2026-04-26 06:32 29.18182 91.41791 18853 ft 301 kts 159°
2026-04-26 06:33 29.16884 91.42361 19109 ft 302 kts 159°
2026-04-26 06:33 29.14262 91.43456 19648 ft 304 kts 166°
2026-04-26 06:33 29.12174 91.43806 20047 ft 305 kts 181°
2026-04-26 06:33 29.10068 91.43532 20436 ft 306 kts 195°
2026-04-26 06:34 29.08734 91.43006 20680 ft 307 kts 205°
2026-04-26 06:34 29.06920 91.41724 21097 ft 309 kts 220°
2026-04-26 06:34 29.05443 91.39943 21525 ft 311 kts 235°
2026-04-26 06:34 29.04396 91.37771 21885 ft 314 kts 249°
2026-04-26 06:35 29.03862 91.35351 22275 ft 317 kts 263°
2026-04-26 06:35 29.04037 91.31980 22798 ft 322 kts 284°
2026-04-26 06:35 29.04455 91.30344 22989 ft 327 kts 285°
2026-04-26 06:35 29.05122 91.27812 23121 ft 339 kts 285°
2026-04-26 06:36 29.05805 91.25189 23251 ft 349 kts 285°
2026-04-26 06:36 29.06503 91.22483 23380 ft 361 kts 285°
2026-04-26 06:36 29.07214 91.19709 23488 ft 372 kts 285°
2026-04-26 06:36 29.07958 91.16812 23597 ft 382 kts 285°
2026-04-26 06:37 29.08716 91.13862 23700 ft 391 kts 285°
2026-04-26 06:37 29.09481 91.10888 23813 ft 400 kts 285°
2026-04-26 06:37 29.10277 91.07802 23924 ft 408 kts 285°
2026-04-26 06:37 29.11084 91.04650 24033 ft 417 kts 285°
2026-04-26 06:38 29.11904 91.01439 24141 ft 424 kts 285°
2026-04-26 06:38 29.12735 90.98175 24255 ft 431 kts 285°
2026-04-26 06:38 29.13583 90.94854 24362 ft 439 kts 285°
2026-04-26 06:38 29.14448 90.91474 24489 ft 445 kts 285°
2026-04-26 06:39 29.15321 90.88064 24715 ft 448 kts 285°
2026-04-26 06:39 29.16198 90.84635 25002 ft 450 kts 285°
2026-04-26 06:39 29.17079 90.81189 25305 ft 452 kts 285°
2026-04-26 06:39 29.17962 90.77733 25594 ft 453 kts 285°
2026-04-26 06:40 29.18832 90.74314 25886 ft 455 kts 285°
2026-04-26 06:40 29.19711 90.70838 26178 ft 456 kts 285°
2026-04-26 06:40 29.20592 90.67339 26467 ft 457 kts 285°
2026-04-26 06:40 29.21477 90.63835 26750 ft 459 kts 285°
2026-04-26 06:41 29.22363 90.60324 27063 ft 460 kts 285°
2026-04-26 06:41 29.23254 90.56803 27360 ft 461 kts 285°
2026-04-26 06:41 29.24149 90.53268 27659 ft 463 kts 285°
2026-04-26 06:41 29.25045 90.49722 27949 ft 464 kts 285°
2026-04-26 06:42 29.25941 90.46167 28235 ft 465 kts 285°
2026-04-26 06:42 29.26834 90.42613 28622 ft 463 kts 285°
2026-04-26 06:42 29.27723 90.39072 29034 ft 461 kts 285°
2026-04-26 06:42 29.28606 90.35550 29448 ft 459 kts 285°
2026-04-26 06:43 29.29475 90.32084 29805 ft 458 kts 285°
2026-04-26 06:43 29.30352 90.28580 30145 ft 457 kts 285°
2026-04-26 06:43 29.31221 90.25092 30481 ft 455 kts 285°
2026-04-26 06:43 29.32088 90.21600 30788 ft 454 kts 284°
2026-04-26 06:44 29.32670 90.18058 31162 ft 451 kts 275°
2026-04-26 06:44 29.32833 90.14478 31509 ft 449 kts 271°
2026-04-26 06:44 29.32949 90.10908 31860 ft 448 kts 271°
2026-04-26 06:44 29.33065 90.07348 32210 ft 446 kts 271°
2026-04-26 06:45 29.33182 90.03812 32548 ft 444 kts 271°
2026-04-26 06:45 29.33299 90.00281 32893 ft 442 kts 271°
2026-04-26 06:45 29.33417 89.96769 33207 ft 440 kts 271°
2026-04-26 06:45 29.33533 89.93316 33534 ft 439 kts 271°
2026-04-26 06:46 29.33648 89.89831 33864 ft 437 kts 271°
2026-04-26 06:46 29.33758 89.86355 34202 ft 435 kts 271°
2026-04-26 06:46 29.33866 89.82897 34525 ft 433 kts 271°
2026-04-26 06:46 29.33973 89.79451 34824 ft 431 kts 271°
2026-04-26 06:47 29.34079 89.76022 35093 ft 430 kts 271°
2026-04-26 06:47 29.34184 89.72607 35395 ft 428 kts 270°
2026-04-26 06:47 29.34288 89.69209 35695 ft 426 kts 270°
2026-04-26 06:47 29.34392 89.65822 35865 ft 425 kts 270°
2026-04-26 06:48 29.34492 89.62448 35902 ft 423 kts 270°
2026-04-26 06:48 29.34688 89.55730 35895 ft 421 kts 270°
2026-04-26 06:49 29.34884 89.49022 35886 ft 421 kts 270°
2026-04-26 06:49 29.35074 89.42311 35885 ft 421 kts 270°
2026-04-26 06:50 29.35266 89.35598 35875 ft 421 kts 270°
2026-04-26 06:50 29.34744 89.29012 35882 ft 418 kts 253°
2026-04-26 06:51 29.32140 89.23105 35884 ft 419 kts 232°
2026-04-26 06:51 29.26211 89.15711 35876 ft 420 kts 229°
2026-04-26 06:52 29.22230 89.10803 35884 ft 421 kts 229°
2026-04-26 06:52 29.18242 89.05889 35890 ft 421 kts 229°
2026-04-26 06:53 29.14248 89.00984 35904 ft 421 kts 229°
2026-04-26 06:53 29.10249 88.96079 35907 ft 422 kts 229°
2026-04-26 06:54 29.06245 88.91169 35917 ft 422 kts 228°
2026-04-26 06:54 29.02258 88.86297 35938 ft 422 kts 228°
2026-04-26 06:55 28.98252 88.81392 35946 ft 422 kts 228°
2026-04-26 06:55 28.94243 88.76492 35970 ft 423 kts 228°
2026-04-26 06:56 28.90229 88.71595 35985 ft 422 kts 228°
2026-04-26 06:56 28.86214 88.66702 35997 ft 422 kts 228°
2026-04-26 06:57 28.82201 88.61820 36011 ft 422 kts 228°
2026-04-26 06:57 28.78182 88.56935 36029 ft 422 kts 228°
2026-04-26 06:58 28.74192 88.52090 36032 ft 422 kts 228°
2026-04-26 06:58 28.70168 88.47209 36041 ft 422 kts 228°
2026-04-26 06:59 28.66143 88.42327 36048 ft 423 kts 227°
2026-04-26 06:59 28.62108 88.37456 36038 ft 423 kts 228°
2026-04-26 07:00 28.58074 88.32585 36037 ft 423 kts 227°
2026-04-26 07:00 28.54041 88.27711 36035 ft 423 kts 228°
2026-04-26 07:01 28.50002 88.22836 36033 ft 424 kts 227°
2026-04-26 07:01 28.45946 88.17964 36033 ft 424 kts 227°
2026-04-26 07:02 28.41917 88.13117 36035 ft 425 kts 227°
2026-04-26 07:02 28.37857 88.08234 36040 ft 425 kts 227°
2026-04-26 07:03 28.33784 88.03354 36054 ft 426 kts 227°
2026-04-26 07:03 28.29705 87.98475 36075 ft 426 kts 227°
2026-04-26 07:04 28.25623 87.93598 36102 ft 426 kts 227°
2026-04-26 07:04 28.21543 87.88720 36130 ft 426 kts 227°
2026-04-26 07:05 28.17452 87.83847 36161 ft 426 kts 227°
2026-04-26 07:05 28.13367 87.78979 36188 ft 427 kts 227°
2026-04-26 07:06 28.09282 87.74099 36209 ft 427 kts 227°
2026-04-26 07:06 28.05185 87.69227 36227 ft 427 kts 227°
2026-04-26 07:07 28.01093 87.64358 36235 ft 427 kts 227°
2026-04-26 07:07 27.97017 87.59520 36238 ft 427 kts 227°
2026-04-26 07:08 27.92908 87.54653 36246 ft 428 kts 227°
2026-04-26 07:08 27.88787 87.49781 36247 ft 428 kts 227°
2026-04-26 07:09 27.84593 87.44977 36247 ft 430 kts 220°
2026-04-26 07:09 27.79459 87.41532 36237 ft 432 kts 204°
2026-04-26 07:11 27.65519 87.35108 36233 ft 435 kts 204°
2026-04-26 07:11 27.59905 87.32522 36224 ft 436 kts 204°
2026-04-26 07:12 27.54280 87.29934 36216 ft 437 kts 204°
2026-04-26 07:12 27.48641 87.27344 36205 ft 437 kts 204°
2026-04-26 07:13 27.43004 87.24752 36181 ft 438 kts 204°
2026-04-26 07:13 27.37595 87.21683 36154 ft 435 kts 221°
2026-04-26 07:13 27.35526 87.19225 36145 ft 433 kts 236°
2026-04-26 07:14 27.34127 87.16240 36138 ft 433 kts 251°
2026-04-26 07:14 27.33490 87.12987 36133 ft 434 kts 265°
2026-04-26 07:14 27.33625 87.09597 36130 ft 436 kts 279°
2026-04-26 07:15 27.34927 87.02910 36131 ft 438 kts 280°
2026-04-26 07:15 27.36238 86.96201 36141 ft 440 kts 281°
2026-04-26 07:16 27.37559 86.89473 36160 ft 441 kts 280°
2026-04-26 07:16 27.38874 86.82721 36178 ft 442 kts 280°
2026-04-26 07:17 27.40189 86.75961 36186 ft 442 kts 280°
2026-04-26 07:17 27.41505 86.69200 36183 ft 442 kts 280°
2026-04-26 07:18 27.42814 86.62444 36183 ft 442 kts 280°
2026-04-26 07:18 27.44111 86.55729 36177 ft 442 kts 280°
2026-04-26 07:19 27.45418 86.48967 36185 ft 442 kts 280°
2026-04-26 07:19 27.46720 86.42205 36176 ft 442 kts 279°
2026-04-26 07:20 27.48012 86.35445 36171 ft 442 kts 279°
2026-04-26 07:20 27.49306 86.28688 36170 ft 441 kts 279°
2026-04-26 07:21 27.50609 86.21935 36166 ft 441 kts 280°
2026-04-26 07:21 27.51932 86.15185 36156 ft 441 kts 280°
2026-04-26 07:22 27.53251 86.08453 36149 ft 440 kts 280°
2026-04-26 07:22 27.54563 86.01720 36128 ft 439 kts 280°
2026-04-26 07:23 27.55863 85.94994 36136 ft 439 kts 280°
2026-04-26 07:23 27.57163 85.88278 36130 ft 438 kts 280°
2026-04-26 07:24 27.58369 85.82016 36132 ft 438 kts 280°
2026-04-26 07:24 27.59658 85.75319 36136 ft 437 kts 280°
2026-04-26 07:25 27.60940 85.68630 36131 ft 436 kts 280°
2026-04-26 07:25 27.62218 85.61948 36131 ft 436 kts 280°
2026-04-26 07:26 27.63494 85.55274 36127 ft 435 kts 280°
2026-04-26 07:26 27.64758 85.48614 36126 ft 434 kts 280°
2026-04-26 07:27 27.66016 85.41971 36127 ft 432 kts 280°
2026-04-26 07:27 27.67274 85.35341 36126 ft 432 kts 280°
2026-04-26 07:28 27.68591 85.28731 36124 ft 432 kts 281°
2026-04-26 07:28 27.69988 85.22196 36127 ft 431 kts 282°
2026-04-26 07:29 27.71392 85.15621 36121 ft 431 kts 281°
2026-04-26 07:29 27.72769 85.09046 36108 ft 430 kts 281°
2026-04-26 07:30 27.74124 85.02486 36095 ft 429 kts 281°
2026-04-26 07:30 27.75476 84.95926 36082 ft 429 kts 281°
2026-04-26 07:31 27.76826 84.89377 36069 ft 427 kts 281°
2026-04-26 07:31 27.78172 84.82846 36061 ft 427 kts 281°
2026-04-26 07:32 27.79512 84.76326 36057 ft 426 kts 281°
2026-04-26 07:32 27.80625 84.70909 36049 ft 425 kts 281°
2026-04-26 07:33 27.82170 84.63349 36036 ft 424 kts 281°
2026-04-26 07:33 27.83491 84.56850 36033 ft 425 kts 281°
2026-04-26 07:34 27.84595 84.51400 36028 ft 424 kts 281°
2026-04-26 07:34 27.85922 84.44907 36025 ft 424 kts 281°
2026-04-26 07:35 27.87228 84.38469 36012 ft 423 kts 281°
2026-04-26 07:35 27.88544 84.31941 36008 ft 423 kts 281°
2026-04-26 07:36 27.89832 84.25512 36003 ft 422 kts 281°
2026-04-26 07:36 27.91123 84.19043 35996 ft 421 kts 281°
2026-04-26 07:37 27.92415 84.12577 35994 ft 421 kts 282°
2026-04-26 07:37 27.93712 84.06116 35999 ft 421 kts 282°
2026-04-26 07:38 27.95007 83.99664 35995 ft 420 kts 282°
2026-04-26 07:38 27.96288 83.93223 35986 ft 420 kts 282°
2026-04-26 07:39 27.97556 83.86822 35983 ft 419 kts 282°
2026-04-26 07:39 27.98828 83.80380 35977 ft 420 kts 282°
2026-04-26 07:40 28.00097 83.73938 35978 ft 419 kts 282°
2026-04-26 07:40 28.01366 83.67498 35987 ft 419 kts 282°
2026-04-26 07:41 28.02631 83.61056 35980 ft 419 kts 282°
2026-04-26 07:41 28.03889 83.54610 35977 ft 419 kts 282°
2026-04-26 07:42 28.05145 83.48175 35971 ft 418 kts 283°
2026-04-26 07:42 28.06408 83.41739 35972 ft 419 kts 282°
2026-04-26 07:43 28.07662 83.35284 35970 ft 419 kts 282°
2026-04-26 07:43 28.08899 83.28844 35968 ft 419 kts 282°
2026-04-26 07:44 28.10134 83.22438 35959 ft 419 kts 282°
2026-04-26 07:44 28.11381 83.15991 35965 ft 419 kts 282°
2026-04-26 07:45 28.12617 83.09537 35964 ft 419 kts 282°
2026-04-26 07:45 28.13854 83.03079 35965 ft 419 kts 282°
2026-04-26 07:46 28.15403 82.96722 35963 ft 419 kts 288°
2026-04-26 07:46 28.17244 82.90449 35961 ft 419 kts 288°
2026-04-26 07:47 28.19077 82.84175 35968 ft 419 kts 288°
2026-04-26 07:47 28.20900 82.77892 35960 ft 420 kts 288°
2026-04-26 07:48 28.22743 82.71667 35959 ft 420 kts 289°
2026-04-26 07:48 28.24816 82.65489 35956 ft 419 kts 291°
2026-04-26 07:49 28.26963 82.59346 35956 ft 419 kts 291°
2026-04-26 07:49 28.29071 82.53183 35955 ft 419 kts 290°
2026-04-26 07:50 28.32169 82.43926 35946 ft 418 kts 290°
2026-04-26 07:50 28.34222 82.37759 35939 ft 418 kts 290°
2026-04-26 07:51 28.36270 82.31635 35928 ft 417 kts 290°
2026-04-26 07:51 28.38322 82.25476 35918 ft 417 kts 290°
2026-04-26 07:52 28.40371 82.19311 35918 ft 417 kts 290°
2026-04-26 07:52 28.42415 82.13156 35900 ft 416 kts 290°
2026-04-26 07:53 28.44454 82.06988 35899 ft 417 kts 290°
2026-04-26 07:53 28.46490 82.00832 35891 ft 416 kts 290°
2026-04-26 07:54 28.48525 81.94677 35888 ft 415 kts 290°
2026-04-26 07:54 28.50557 81.88523 35883 ft 416 kts 290°
2026-04-26 07:55 28.52574 81.82414 35869 ft 415 kts 290°
2026-04-26 07:55 28.54602 81.76259 35872 ft 416 kts 290°
2026-04-26 07:56 28.56628 81.70096 35864 ft 416 kts 290°
2026-04-26 07:56 28.58641 81.63935 35856 ft 415 kts 289°
2026-04-26 07:57 28.60427 81.57683 35859 ft 415 kts 286°
2026-04-26 07:57 28.61986 81.51353 35849 ft 415 kts 285°
2026-04-26 07:58 28.63542 81.45023 35841 ft 415 kts 286°
2026-04-26 07:58 28.65149 81.38711 35842 ft 415 kts 287°
2026-04-26 07:59 28.66770 81.32456 35832 ft 414 kts 287°
2026-04-26 07:59 28.68391 81.26164 35827 ft 414 kts 286°
2026-04-26 08:00 28.69998 81.19880 35824 ft 413 kts 286°
2026-04-26 08:00 28.71598 81.13595 35824 ft 413 kts 286°
2026-04-26 08:01 28.73196 81.07312 35825 ft 412 kts 286°
2026-04-26 08:01 28.74789 81.01044 35825 ft 412 kts 286°
2026-04-26 08:02 28.76380 80.94773 35834 ft 412 kts 286°
2026-04-26 08:02 28.77960 80.88544 35829 ft 411 kts 286°
2026-04-26 08:03 28.79534 80.82273 35837 ft 411 kts 286°
2026-04-26 08:03 28.81102 80.76006 35845 ft 411 kts 287°
2026-04-26 08:04 28.82676 80.69749 35839 ft 410 kts 287°
2026-04-26 08:04 28.84244 80.63495 35837 ft 410 kts 287°
2026-04-26 08:05 28.85811 80.57251 35847 ft 409 kts 287°
2026-04-26 08:05 28.87358 80.51052 35840 ft 409 kts 287°
2026-04-26 08:06 28.88910 80.44814 35835 ft 409 kts 287°
2026-04-26 08:06 28.90464 80.38571 35829 ft 409 kts 287°
2026-04-26 08:07 28.92013 80.32334 35823 ft 408 kts 287°
2026-04-26 08:07 28.93550 80.26093 35821 ft 408 kts 287°
2026-04-26 08:08 28.95091 80.19853 35820 ft 408 kts 287°
2026-04-26 08:08 28.96462 80.13575 35821 ft 409 kts 279°
2026-04-26 08:09 28.97097 80.07121 35826 ft 409 kts 278°
2026-04-26 08:09 28.97752 80.00725 35815 ft 408 kts 279°
2026-04-26 08:10 28.98417 79.94287 35815 ft 408 kts 279°
2026-04-26 08:10 28.99079 79.87857 35817 ft 407 kts 279°
2026-04-26 08:11 28.99717 79.81437 35821 ft 407 kts 278°
2026-04-26 08:11 29.00359 79.75014 35808 ft 407 kts 278°
2026-04-26 08:12 29.01002 79.68596 35804 ft 407 kts 278°
2026-04-26 08:12 29.01649 79.62177 35807 ft 407 kts 278°
2026-04-26 08:13 29.02279 79.55797 35796 ft 407 kts 278°
2026-04-26 08:13 29.02148 79.49334 35786 ft 413 kts 260°
2026-04-26 08:14 29.01217 79.46211 35783 ft 419 kts 249°
2026-04-26 08:14 28.99711 79.43326 35781 ft 427 kts 237°
2026-04-26 08:14 28.95698 79.38247 35774 ft 432 kts 233°
2026-04-26 08:15 28.91614 79.33213 35776 ft 433 kts 232°
2026-04-26 08:15 28.87510 79.28166 35786 ft 434 kts 232°
2026-04-26 08:16 28.83407 79.23120 35777 ft 434 kts 232°
2026-04-26 08:16 28.79323 79.18102 35777 ft 434 kts 232°
2026-04-26 08:17 28.75213 79.13058 35777 ft 435 kts 232°
2026-04-26 08:17 28.71096 79.08006 35781 ft 435 kts 232°
2026-04-26 08:18 28.66974 79.02960 35781 ft 435 kts 232°
2026-04-26 08:18 28.64905 79.00436 35563 ft 436 kts 232°
2026-04-26 08:18 28.62816 78.97885 34646 ft 444 kts 231°
2026-04-26 08:19 28.60705 78.95306 33856 ft 448 kts 231°
2026-04-26 08:19 28.58569 78.92695 32895 ft 454 kts 231°
2026-04-26 08:19 28.56406 78.90053 32000 ft 458 kts 231°
2026-04-26 08:19 28.54224 78.87394 31078 ft 462 kts 231°
2026-04-26 08:20 28.52015 78.84703 30116 ft 467 kts 231°
2026-04-26 08:20 28.50029 78.81790 28994 ft 467 kts 242°
2026-04-26 08:20 28.48557 78.78521 27977 ft 464 kts 252°
2026-04-26 08:20 28.47672 78.75093 27409 ft 453 kts 261°
2026-04-26 08:21 28.47304 78.71529 26727 ft 446 kts 271°
2026-04-26 08:21 28.47464 78.68039 26068 ft 440 kts 277°
2026-04-26 08:21 28.47738 78.64635 25424 ft 436 kts 277°
2026-04-26 08:21 28.48011 78.61217 24791 ft 433 kts 277°
2026-04-26 08:22 28.48280 78.57826 24158 ft 429 kts 277°
2026-04-26 08:22 28.48542 78.54464 23538 ft 426 kts 277°
2026-04-26 08:22 28.48798 78.51119 22862 ft 423 kts 277°
2026-04-26 08:22 28.49050 78.47816 22270 ft 416 kts 277°
2026-04-26 08:23 28.49299 78.44558 21701 ft 410 kts 277°
2026-04-26 08:23 28.49544 78.41350 21153 ft 404 kts 277°
2026-04-26 08:23 28.49786 78.38190 20633 ft 398 kts 277°
2026-04-26 08:23 28.50024 78.35074 20135 ft 392 kts 277°
2026-04-26 08:24 28.50260 78.32009 19644 ft 387 kts 277°
2026-04-26 08:24 28.50493 78.28992 19178 ft 381 kts 277°
2026-04-26 08:24 28.50722 78.26011 18728 ft 376 kts 277°
2026-04-26 08:24 28.50944 78.23073 18280 ft 371 kts 277°
2026-04-26 08:25 28.51162 78.20169 17807 ft 366 kts 277°
2026-04-26 08:25 28.51372 78.17325 17590 ft 355 kts 277°
2026-04-26 08:25 28.51575 78.14582 17454 ft 342 kts 277°
2026-04-26 08:25 28.51771 78.11942 17334 ft 329 kts 277°
2026-04-26 08:26 28.51959 78.09398 17205 ft 317 kts 277°
2026-04-26 08:26 28.52144 78.06944 17077 ft 306 kts 277°
2026-04-26 08:26 28.52319 78.04609 16951 ft 295 kts 278°
2026-04-26 08:26 28.52487 78.02323 16809 ft 286 kts 278°
2026-04-26 08:27 28.52652 78.00066 16621 ft 278 kts 277°
2026-04-26 08:27 28.52810 77.97907 16551 ft 278 kts 276°
2026-04-26 08:27 28.52709 77.95695 16310 ft 284 kts 265°
2026-04-26 08:27 28.52397 77.93461 15901 ft 285 kts 264°
2026-04-26 08:28 28.52075 77.91239 15463 ft 287 kts 264°
2026-04-26 08:28 28.51750 77.89022 15218 ft 282 kts 264°
2026-04-26 08:28 28.51431 77.86832 14899 ft 280 kts 264°
2026-04-26 08:28 28.51116 77.84656 14575 ft 278 kts 264°
2026-04-26 08:29 28.50807 77.82489 14256 ft 277 kts 264°
2026-04-26 08:29 28.50497 77.80336 13951 ft 275 kts 264°
2026-04-26 08:29 28.50187 77.78169 13392 ft 283 kts 264°
2026-04-26 08:29 28.49869 77.75910 12620 ft 296 kts 264°
2026-04-26 08:30 28.49537 77.73556 11835 ft 308 kts 264°
2026-04-26 08:30 28.49191 77.71124 11192 ft 314 kts 264°
2026-04-26 08:30 28.48837 77.68667 10678 ft 316 kts 263°
2026-04-26 08:30 28.48489 77.66278 10185 ft 303 kts 263°
2026-04-26 08:31 28.48144 77.63921 9709 ft 304 kts 263°
2026-04-26 08:31 28.47797 77.61547 9233 ft 303 kts 263°
2026-04-26 08:31 28.47458 77.59235 9157 ft 290 kts 263°
2026-04-26 08:31 28.47155 77.57024 9071 ft 276 kts 268°
2026-04-26 08:32 28.47495 77.54975 8952 ft 260 kts 300°
2026-04-26 08:32 28.48737 77.53578 8866 ft 250 kts 326°
2026-04-26 08:32 28.50134 77.52511 8793 ft 233 kts 309°
2026-04-26 08:32 28.50719 77.51509 8764 ft 229 kts 297°
2026-04-26 08:33 28.51488 77.49928 8719 ft 228 kts 300°
2026-04-26 08:33 28.52304 77.48383 8671 ft 228 kts 301°
2026-04-26 08:33 28.53142 77.46861 8619 ft 227 kts 302°
2026-04-26 08:33 28.53991 77.45347 8581 ft 227 kts 302°
2026-04-26 08:34 28.55135 77.43323 7928 ft 236 kts 302°
2026-04-26 08:34 28.55719 77.42230 7375 ft 242 kts 295°
2026-04-26 08:34 28.56156 77.40394 7026 ft 243 kts 282°
2026-04-26 08:34 28.56343 77.38461 6410 ft 246 kts 275°
2026-04-26 08:35 28.56400 77.36520 5793 ft 244 kts 273°
2026-04-26 08:35 28.56442 77.34573 4779 ft 256 kts 274°
2026-04-26 08:35 28.56489 77.32547 3740 ft 256 kts 273°
2026-04-26 08:35 28.56536 77.30603 3280 ft 233 kts 274°
2026-04-26 08:36 28.56578 77.28856 3130 ft 213 kts 274°
2026-04-26 08:36 28.56620 77.27193 3042 ft 210 kts 274°
2026-04-26 08:36 28.56657 77.25628 2990 ft 183 kts 273°
2026-04-26 08:36 28.56690 77.24248 2819 ft 167 kts 275°
2026-04-26 08:37 28.56720 77.22993 2653 ft 153 kts 274°
2026-04-26 08:37 28.56749 77.21809 2461 ft 148 kts 275°
2026-04-26 08:37 28.56778 77.20648 2279 ft 146 kts 275°
2026-04-26 08:37 28.56806 77.19490 2099 ft 145 kts 274°
2026-04-26 08:38 28.56833 77.18345 1928 ft 146 kts 274°
2026-04-26 08:38 28.56860 77.17214 1743 ft 146 kts 275°
2026-04-26 08:38 28.56887 77.16052 1570 ft 146 kts 274°
2026-04-26 08:38 28.56914 77.14907 1377 ft 145 kts 277°
2026-04-26 08:39 28.56941 77.13760 1176 ft 147 kts 275°
2026-04-26 08:39 28.56964 77.12600 1025 ft 145 kts 274°
2026-04-26 08:39 28.56992 77.11455 811 ft 143 kts 275°
2026-04-26 08:39 28.57019 77.10421 778 ft 118 kts 275°
2026-04-26 08:40 28.57037 77.09751 773 ft 42 kts 271°
2026-04-26 08:40 28.57042 77.09533 774 ft 28 kts 272°
2026-04-26 08:40 28.57016 77.09346 775 ft 16 kts 250°
2026-04-26 08:40 28.56979 77.09260 774 ft 11 kts 243°
2026-04-26 08:41 28.56945 77.09184 774 ft 10 kts 242°
2026-04-26 08:41 28.56912 77.09115 774 ft 10 kts 242°
2026-04-26 08:41 28.56877 77.09047 773 ft 11 kts 239°
2026-04-26 08:41 28.56818 77.09008 773 ft 10 kts 180°
2026-04-26 08:42 28.56756 77.09019 773 ft 9 kts 169°
2026-04-26 08:42 28.56671 77.09039 774 ft 15 kts 168°
2026-04-26 08:42 28.56576 77.09061 774 ft 13 kts 168°
2026-04-26 08:42 28.56489 77.09079 773 ft 12 kts 170°
2026-04-26 08:43 28.56410 77.09095 773 ft 12 kts 171°
2026-04-26 08:43 28.56311 77.09091 773 ft 14 kts 195°
2026-04-26 08:43 28.56215 77.09063 773 ft 16 kts 194°
2026-04-26 08:43 28.56137 77.08995 773 ft 11 kts 268°
2026-04-26 08:44 28.56147 77.08909 773 ft 11 kts 261°
2026-04-26 08:44 28.56095 77.08867 773 ft 9 kts 195°
2026-04-26 08:44 28.56044 77.08851 773 ft 0 kts 195°